Location: *
(48.7358°N, 0.3111°E)
Time: 07:50:05
(UTC+00:00)

USA 267 - Pass Details

Date: 22 October 2019
Orbit: 1101 x 1106 km, 123.0° (Epoch: 12 November)

Event Time Altitude Azimuth Distance (km) Brightness Sun altitude
Rises 02:57:48 0° 55° (NE) 3,926 7.2 -34.8°
Reaches altitude 10° 03:00:22 10° 61° (ENE) 2,966 6.3 -34.4°
Maximum altitude 03:06:45 52° 137° (SE) 1,347 3.7 -33.5°
Enters shadow 03:06:49 52° 139° (SE) 1,347 3.7 -33.4°
